Flag for Russia Weather past 2 weeks in Kemerovo, Russia

43 °F

Sprinkles. Passing clouds.

Feels Like: 35 °F
Forecast: 35 / 39 °F
Wind: 17 mph from Southwest

Location: Kemerovo

Current Time: Oct 5, 2015 at 7:12:18 AM

Latest Report: Oct 5, 2015 at 6:30 AM

Visibility: N/A

Pressure: 29.30 "Hg

Humidity: 81%

Dew point: 37 °F

Location of KemerovoLocation

Historic Weather in Kemerovo — Graph


Kemerovo temperature yesterday

Maximum temperature yesterday: 57 °F (at 12:00 AM)
Minimum temperature yesterday: 43 °F (at 6:00 AM)
Average temperature yesterday: 48 °F

Past Weeks' High & Low Weather Summary

High68 °F (Oct 1, 3:00 PM)100% (Sep 21, 1:30 AM)30.48 "Hg (Sep 21, 1:30 AM)
Low28 °F (Sep 28, 6:00 AM)36% (Oct 3, 8:30 PM)29.12 "Hg (Oct 4, 6:00 PM)
Average41 °F85%29.92 "Hg
* Reported Sep 20 6:00 AM — Oct 5 6:00 AM, Kemerovo, Weather by CustomWeather, © 2015

Note: Actual official high and low records may vary slightly from our data, if they occured in-between our weather recording intervals... More about our weather records


Kemerovo weather history for previous 24 hours

Time TempWeatherWind HumidityBarometerVisibility
6:00 AM
Mon, Oct 5
45 °FPassing clouds.20 mph71%29.27 "HgN/A
5:30 AM46 °FPassing clouds.22 mph66%29.27 "HgN/A
4:30 AM46 °FOvercast.17 mph62%29.27 "HgN/A
4:00 AM46 °FPassing clouds.15 mph62%29.24 "HgN/A
3:30 AM46 °FPassing clouds.20 mph66%29.24 "HgN/A
3:00 AM48 °FPassing clouds.22 mph58%29.24 "HgN/A
2:30 AM48 °FClear.17 mph58%29.24 "Hg10 mi
2:00 AM48 °FClear.20 mph58%29.24 "Hg10 mi
1:30 AM48 °FClear.20 mph58%29.21 "Hg10 mi
1:00 AM48 °FClear.15 mph62%29.21 "Hg10 mi
12:30 AM48 °FClear.13 mph62%29.21 "Hg10 mi
12:00 AM50 °FClear.15 mph58%29.21 "Hg10 mi
11:30 PM
Sun, Oct 4
50 °FClear.15 mph58%29.21 "Hg10 mi
11:00 PM50 °FClear.17 mph58%29.21 "Hg10 mi
10:30 PM52 °FClear.20 mph54%29.21 "Hg10 mi
10:00 PM52 °FClear.20 mph58%29.21 "Hg10 mi
9:30 PM52 °FClear.20 mph58%29.18 "Hg10 mi
9:00 PM52 °FClear.22 mph58%29.18 "Hg10 mi
8:30 PM52 °FClear.22 mph62%29.18 "Hg10 mi
8:00 PM52 °FClear.24 mph62%29.15 "Hg10 mi
7:30 PM50 °FSunny.15 mph71%29.15 "Hg10 mi
7:00 PM50 °FSunny.13 mph71%29.15 "Hg10 mi
6:30 PM52 °FSunny.20 mph67%29.15 "Hg10 mi
6:00 PM52 °FSunny.20 mph67%29.12 "Hg10 mi
5:30 PM52 °FSunny.20 mph72%29.15 "Hg10 mi
5:00 PM52 °FSunny.20 mph72%29.15 "Hg10 mi
4:30 PM50 °FSunny.22 mph71%29.15 "Hg10 mi
4:00 PM50 °FSunny.22 mph76%29.15 "Hg10 mi
3:30 PM48 °FLight rain. Overcast.20 mph82%29.18 "HgN/A
3:00 PM48 °FLight rain. Overcast.26 mph82%29.15 "HgN/A
2:30 PM50 °FLight rain. Overcast.26 mph71%29.15 "HgN/A
2:00 PM54 °FLight rain. Overcast.33 mph54%29.15 "HgN/A
1:30 PM50 °FScattered clouds.15 mph62%29.18 "HgN/A
1:00 PM46 °FSprinkles. Scattered clouds.15 mph76%29.18 "HgN/A
12:30 PM46 °FSprinkles. Scattered clouds.17 mph76%29.21 "HgN/A
12:00 PM45 °FSprinkles. Scattered clouds.15 mph81%29.27 "HgN/A
11:30 AM45 °FSprinkles. Scattered clouds.17 mph81%29.30 "HgN/A
11:00 AM45 °FSprinkles. Scattered clouds.15 mph81%29.33 "HgN/A
10:30 AM45 °FSprinkles. Scattered clouds.15 mph81%29.36 "HgN/A
10:00 AM46 °FPartly sunny.15 mph76%29.39 "HgN/A
9:30 AM45 °FMostly cloudy.15 mph81%29.42 "HgN/A
9:00 AM45 °FScattered clouds.15 mph81%29.42 "HgN/A
8:30 AM45 °FSunny.15 mph76%29.42 "Hg10 mi
8:00 AM45 °FClear.13 mph76%29.45 "Hg10 mi
7:30 AM43 °FClear.13 mph87%29.45 "Hg10 mi
7:00 AM43 °FClear.15 mph87%29.45 "Hg10 mi
Weather by CustomWeather, © 2015

See weather overviewHow to use our weather pages